^^

..:: Storico WU ::..




Lo storico viene creato da WUnderground con i dati che la stazione Meteomincio invia al loro server. L' aggiornamento viene fatto ogni 5 minuti circa, tuttavia possono esserci intervalli pił ampi a causa di errori, interruzioni di servizio o problemi nell' invio tramite FTP.


Storico stazione MeteoMincio
Giorno Sommario per Ottobre 02, 2022 Unità:  Inglese    Metrico   Entrambi
Giorno Settimana Mese Anno
  Max: Min: Media:
Temperatura: 77 °F 51.8 °F 63 °F
Dew Point: 62.6 °F 50 °F 56.8 °F
Umidità: 93% 61% 82%
Velocità vento: 6.2mph 0mph 2.1mph
Raffica: 8.1mph - -
Direzione- - SSW
Pressione: 30.2 in 30 in -
Precipitazioni: 0 in    
 
 
Tabulato Dati per Ottobre 02, 2022
Ora Temperatura Dew Point Pressione Direzione Velocità vento Raffica Umidità Intensità pioggia (oraria) Info solare Situazione
00:03 59 °F 51.8 °F 30 in WSW 5 mph 5 mph 79% 0 in 0.00 W/m2 unknown
00:09 59 °F 51.8 °F 30 in West 5 mph 5 mph 81% 0 in 0.00 W/m2 unknown
00:13 59 °F 51.8 °F 30 in West 3.1 mph 5 mph 81% 0 in 0.00 W/m2 unknown
00:18 59 °F 51.8 °F 30 in West 2.5 mph 5 mph 81% 0 in 0.00 W/m2 unknown
00:23 59 °F 51.8 °F 30 in West 2.5 mph 3.7 mph 81% 0 in 0.00 W/m2 unknown
00:26 59 °F 51.8 °F 30 in West 2.5 mph 3.7 mph 81% 0 in 0.00 W/m2 unknown
00:33 59 °F 53.6 °F 30 in West 2.5 mph 3.7 mph 81% 0 in 0.00 W/m2 unknown
00:39 59 °F 53.6 °F 30 in West 2.5 mph 5 mph 81% 0 in 0.00 W/m2 unknown
00:42 59 °F 53.6 °F 30 in West 3.1 mph 6.2 mph 82% 0 in 0.00 W/m2 unknown
00:48 59 °F 53.6 °F 30 in West 4.3 mph 6.2 mph 82% 0 in 0.00 W/m2 unknown
00:53 59 °F 53.6 °F 30 in WNW 4.3 mph 6.2 mph 82% 0 in 0.00 W/m2 unknown
00:57 59 °F 53.6 °F 30 in West 3.7 mph 6.2 mph 83% 0 in 0.00 W/m2 unknown
01:04 59 °F 53.6 °F 30 in West 4.3 mph 8.1 mph 83% 0 in 0.00 W/m2 unknown
01:08 59 °F 53.6 °F 30 in West 5 mph 8.1 mph 83% 0 in 0.00 W/m2 unknown
01:13 59 °F 53.6 °F 30 in West 5 mph 8.1 mph 84% 0 in 0.00 W/m2 unknown
01:19 59 °F 53.6 °F 30 in WNW 5.6 mph 8.1 mph 84% 0 in 0.00 W/m2 unknown
01:22 59 °F 53.6 °F 30 in WNW 5 mph 8.1 mph 84% 0 in 0.00 W/m2 unknown
01:27 59 °F 53.6 °F 30 in WNW 5 mph 6.2 mph 84% 0 in 0.00 W/m2 unknown
01:32 59 °F 53.6 °F 30 in WNW 5 mph 6.2 mph 84% 0 in 0.00 W/m2 unknown
01:38 59 °F 53.6 °F 30.1 in West 5.6 mph 6.8 mph 84% 0 in 0.00 W/m2 unknown
01:44 59 °F 53.6 °F 30.1 in West 5.6 mph 8.1 mph 83% 0 in 0.00 W/m2 unknown
01:47 59 °F 53.6 °F 30.1 in West 5 mph 8.1 mph 83% 0 in 0.00 W/m2 unknown
01:54 59 °F 53.6 °F 30.1 in West 5 mph 8.1 mph 83% 0 in 0.00 W/m2 unknown
01:56 59 °F 53.6 °F 30.1 in WSW 5 mph 8.1 mph 83% 0 in 0.00 W/m2 unknown
02:00 59 °F 53.6 °F 30.1 in WSW 5 mph 8.1 mph 83% 0 in 0.00 W/m2 unknown
02:08 59 °F 53.6 °F 30.1 in WSW 5 mph 8.1 mph 83% 0 in 0.00 W/m2 unknown
02:13 59 °F 53.6 °F 30.1 in West 5 mph 8.1 mph 85% 0 in 0.00 W/m2 unknown
02:18 59 °F 53.6 °F 30.1 in West 5 mph 6.2 mph 85% 0 in 0.00 W/m2 unknown
02:23 57.2 °F 53.6 °F 30.1 in WSW 5 mph 6.2 mph 85% 0 in 0.00 W/m2 unknown
02:28 57.2 °F 53.6 °F 30.1 in WSW 5 mph 6.2 mph 85% 0 in 0.00 W/m2 unknown
02:32 57.2 °F 53.6 °F 30.1 in West 3.1 mph 5 mph 86% 0 in 0.00 W/m2 unknown
02:39 57.2 °F 53.6 °F 30.1 in WSW 3.1 mph 5 mph 86% 0 in 0.00 W/m2 unknown
02:42 57.2 °F 51.8 °F 30.1 in West 3.7 mph 5 mph 86% 0 in 0.00 W/m2 unknown
02:48 57.2 °F 53.6 °F 30.1 in West 4.3 mph 5 mph 86% 0 in 0.00 W/m2 unknown
02:53 57.2 °F 51.8 °F 30.1 in WNW 4.3 mph 5 mph 86% 0 in 0.00 W/m2 unknown
02:58 57.2 °F 51.8 °F 30.1 in West 3.7 mph 5 mph 86% 0 in 0.00 W/m2 unknown
03:02 57.2 °F 51.8 °F 30.1 in WSW 3.1 mph 5 mph 87% 0 in 0.00 W/m2 unknown
03:06 57.2 °F 51.8 °F 30.1 in WSW 3.1 mph 5 mph 87% 0 in 0.00 W/m2 unknown
03:14 57.2 °F 51.8 °F 30.1 in WSW 3.1 mph 3.7 mph 87% 0 in 0.00 W/m2 unknown
03:18 55.4 °F 51.8 °F 30.1 in West 3.1 mph 3.7 mph 87% 0 in 0.00 W/m2 unknown
03:24 55.4 °F 51.8 °F 30.1 in West 1.9 mph 3.7 mph 88% 0 in 0.00 W/m2 unknown
03:29 55.4 °F 51.8 °F 30.1 in West 1.9 mph 3.7 mph 88% 0 in 0.00 W/m2 unknown
03:33 55.4 °F 51.8 °F 30.1 in West 3.7 mph 3.7 mph 88% 0 in 0.00 W/m2 unknown
03:38 55.4 °F 51.8 °F 30.1 in West 3.7 mph 3.7 mph 89% 0 in 0.00 W/m2 unknown
03:43 55.4 °F 51.8 °F 30.1 in West 3.7 mph 3.7 mph 89% 0 in 0.00 W/m2 unknown
03:48 53.6 °F 51.8 °F 30.1 in West 3.1 mph 3.7 mph 89% 0 in 0.00 W/m2 unknown
03:53 53.6 °F 51.8 °F 30.1 in West 3.1 mph 3.7 mph 89% 0 in 0.00 W/m2 unknown
03:58 55.4 °F 51.8 °F 30.1 in West 2.5 mph 3.7 mph 89% 0 in 0.00 W/m2 unknown
04:04 55.4 °F 51.8 °F 30.1 in SW 1.9 mph 3.7 mph 89% 0 in 0.00 W/m2 unknown
04:08 55.4 °F 51.8 °F 30.1 in SW 2.5 mph 3.7 mph 89% 0 in 0.00 W/m2 unknown
04:14 55.4 °F 51.8 °F 30.1 in WSW 2.5 mph 3.7 mph 89% 0 in 0.00 W/m2 unknown
04:18 55.4 °F 51.8 °F 30.1 in SW 2.5 mph 3.7 mph 89% 0 in 0.00 W/m2 unknown
04:24 55.4 °F 51.8 °F 30.1 in WSW 2.5 mph 3.7 mph 89% 0 in 0.00 W/m2 unknown
04:28 55.4 °F 51.8 °F 30.1 in WSW 1.9 mph 3.7 mph 89% 0 in 0.00 W/m2 unknown
04:34 55.4 °F 51.8 °F 30.1 in WSW 2.5 mph 3.7 mph 89% 0 in 0.00 W/m2 unknown
04:38 55.4 °F 51.8 °F 30.1 in SW 2.5 mph 3.7 mph 89% 0 in 0.00 W/m2 unknown
04:44 55.4 °F 51.8 °F 30.1 in SW 1.9 mph 3.7 mph 89% 0 in 0.00 W/m2 unknown
04:48 53.6 °F 51.8 °F 30.1 in SW 1.2 mph 3.7 mph 89% 0 in 0.00 W/m2 unknown
04:54 53.6 °F 51.8 °F 30.1 in SW 3.1 mph 3.7 mph 90% 0 in 0.00 W/m2 unknown
04:56 53.6 °F 51.8 °F 30.1 in SW 3.1 mph 3.7 mph 90% 0 in 0.00 W/m2 unknown
05:04 53.6 °F 51.8 °F 30.1 in WSW 3.1 mph 3.7 mph 90% 0 in 0.00 W/m2 unknown
05:08 53.6 °F 51.8 °F 30.1 in WSW 3.1 mph 3.7 mph 90% 0 in 0.00 W/m2 unknown
05:13 53.6 °F 51.8 °F 30.1 in WSW 2.5 mph 3.7 mph 90% 0 in 0.00 W/m2 unknown
05:18 53.6 °F 51.8 °F 30.1 in SW 2.5 mph 3.7 mph 90% 0 in 0.00 W/m2 unknown
05:23 53.6 °F 51.8 °F 30.1 in SW 1.9 mph 3.7 mph 90% 0 in 0.00 W/m2 unknown
05:28 53.6 °F 51.8 °F 30.1 in WSW 1.2 mph 1.2 mph 90% 0 in 0.00 W/m2 unknown
05:33 53.6 °F 51.8 °F 30.1 in Calm   1.2 mph 90% 0 in 0.00 W/m2 unknown
05:37 53.6 °F 50 °F 30.1 in Calm   1.2 mph 90% 0 in 0.00 W/m2 unknown
05:43 53.6 °F 51.8 °F 30.1 in Calm   1.2 mph 91% 0 in 0.00 W/m2 unknown
05:49 53.6 °F 50 °F 30.1 in Calm   1.2 mph 91% 0 in 0.00 W/m2 unknown
05:54 53.6 °F 50 °F 30.1 in Calm   1.2 mph 91% 0 in 0.00 W/m2 unknown
05:58 53.6 °F 50 °F 30.1 in Calm   1.2 mph 91% 0 in 0.00 W/m2 unknown
06:03 53.6 °F 50 °F 30.1 in Calm   1.2 mph 91% 0 in 0.00 W/m2 unknown
06:08 53.6 °F 50 °F 30.1 in West 0.6 mph 1.2 mph 91% 0 in 0.00 W/m2 unknown
06:13 53.6 °F 50 °F 30.1 in WNW 1.2 mph 1.9 mph 91% 0 in 0.00 W/m2 unknown
06:18 53.6 °F 50 °F 30.1 in WNW 1.2 mph 2.5 mph 91% 0 in 0.00 W/m2 unknown
06:23 53.6 °F 50 °F 30.1 in WNW 1.2 mph 2.5 mph 91% 0 in 0.00 W/m2 unknown
06:28 53.6 °F 50 °F 30.1 in West 1.2 mph 2.5 mph 91% 0 in 0.00 W/m2 unknown
06:33 51.8 °F 50 °F 30.1 in WNW 1.2 mph 2.5 mph 92% 0 in 0.00 W/m2 unknown
06:37 51.8 °F 50 °F 30.1 in WNW 1.2 mph 2.5 mph 92% 0 in 0.00 W/m2 unknown
06:42 51.8 °F 50 °F 30.1 in WNW 0.6 mph 2.5 mph 92% 0 in 0.00 W/m2 unknown
06:49 51.8 °F 50 °F 30.1 in NW 1.2 mph 2.5 mph 92% 0 in 0.00 W/m2 unknown
06:52 51.8 °F 50 °F 30.1 in NNW 1.2 mph 2.5 mph 92% 0 in 0.00 W/m2 unknown
06:57 51.8 °F 50 °F 30.1 in North 1.2 mph 2.5 mph 92% 0 in 0.00 W/m2 unknown
07:02 51.8 °F 50 °F 30.1 in NNE 1.2 mph 2.5 mph 92% 0 in 0.00 W/m2 unknown
07:08 53.6 °F 50 °F 30.1 in NNE 1.2 mph 2.5 mph 92% 0 in 0.00 W/m2 unknown
07:13 53.6 °F 50 °F 30.1 in NNE 1.2 mph 2.5 mph 92% 0 in 0.00 W/m2 unknown
07:18 51.8 °F 50 °F 30.1 in NNE 1.2 mph 2.5 mph 92% 0 in 0.00 W/m2 unknown
07:24 51.8 °F 50 °F 30.1 in NNE 1.2 mph 2.5 mph 92% 0 in 0.00 W/m2 unknown
07:27 51.8 °F 50 °F 30.1 in NNE 0.6 mph 2.5 mph 93% 0 in 5.00 W/m2 unknown
07:34 51.8 °F 50 °F 30.1 in NNE 1.2 mph 2.5 mph 93% 0 in 5.00 W/m2 unknown
07:39 53.6 °F 50 °F 30.1 in NNE 1.2 mph 2.5 mph 93% 0 in 12.00 W/m2 unknown
07:44 53.6 °F 50 °F 30.1 in Calm   1.9 mph 93% 0 in 14.00 W/m2 unknown
07:48 53.6 °F 51.8 °F 30.1 in Calm     93% 0 in 19.00 W/m2 unknown
07:53 53.6 °F 51.8 °F 30.1 in Calm     93% 0 in 28.00 W/m2 unknown
07:58 53.6 °F 51.8 °F 30.1 in Calm     93% 0 in 28.00 W/m2 unknown
08:04 53.6 °F 51.8 °F 30.1 in Calm     93% 0 in 39.00 W/m2 unknown
08:08 53.6 °F 51.8 °F 30.1 in Calm     93% 0 in 39.00 W/m2 unknown
08:10 53.6 °F 51.8 °F 30.1 in Calm     93% 0 in 37.00 W/m2 unknown
08:18 53.6 °F 51.8 °F 30.1 in Calm     93% 0 in 37.00 W/m2 unknown
08:21 53.6 °F 51.8 °F 30.1 in Calm   1.2 mph 93% 0 in 53.00 W/m2 unknown
08:29 53.6 °F 51.8 °F 30.1 in Calm   1.2 mph 92% 0 in 74.00 W/m2 unknown
08:33 55.4 °F 51.8 °F 30.1 in Calm   1.2 mph 92% 0 in 111.00 W/m2 unknown
08:36 55.4 °F 53.6 °F 30.1 in Calm     92% 0 in 111.00 W/m2 unknown
08:42 55.4 °F 53.6 °F 30.1 in Calm   1.2 mph 92% 0 in 76.00 W/m2 unknown
08:47 55.4 °F 53.6 °F 30.1 in Calm     92% 0 in 83.00 W/m2 unknown
08:54 57.2 °F 53.6 °F 30.1 in Calm     91% 0 in 100.00 W/m2 unknown
08:57 57.2 °F 53.6 °F 30.1 in Calm     91% 0 in 104.00 W/m2 unknown
09:02 57.2 °F 53.6 °F 30.1 in Calm     91% 0 in 104.00 W/m2 unknown
09:07 57.2 °F 53.6 °F 30.1 in Calm     91% 0 in 95.00 W/m2 unknown
09:14 57.2 °F 53.6 °F 30.1 in Calm     90% 0 in 95.00 W/m2 unknown
09:17 57.2 °F 53.6 °F 30.1 in Calm   1.2 mph 90% 0 in 104.00 W/m2 unknown
09:23 57.2 °F 53.6 °F 30.1 in Calm   2.5 mph 91% 0 in 104.00 W/m2 unknown
09:29 57.2 °F 53.6 °F 30.1 in Calm   2.5 mph 91% 0 in 95.00 W/m2 unknown
09:34 57.2 °F 55.4 °F 30.2 in SE 0.6 mph 3.7 mph 91% 0 in 367.00 W/m2 unknown
09:38 57.2 °F 55.4 °F 30.2 in SW 0.6 mph 3.7 mph 91% 0 in 367.00 W/m2 unknown
09:41 57.2 °F 53.6 °F 30.1 in SW 0.6 mph 3.7 mph 91% 0 in 107.00 W/m2 unknown
09:49 59 °F 55.4 °F 30.1 in SW 1.2 mph 3.7 mph 89% 0 in 357.00 W/m2 unknown
09:54 59 °F 55.4 °F 30.1 in SW 1.9 mph 3.7 mph 89% 0 in 383.00 W/m2 unknown
09:59 59 °F 55.4 °F 30.1 in SSW 1.2 mph 2.5 mph 88% 0 in 397.00 W/m2 unknown
10:04 59 °F 55.4 °F 30.1 in South 1.2 mph 1.9 mph 88% 0 in 397.00 W/m2 unknown
10:09 59 °F 55.4 °F 30.1 in SSW 1.9 mph 3.1 mph 88% 0 in 406.00 W/m2 unknown
10:13 60.8 °F 57.2 °F 30.1 in WSW 2.5 mph 3.7 mph 87% 0 in 406.00 W/m2 unknown
10:17 60.8 °F 57.2 °F 30.1 in WSW 2.5 mph 3.7 mph 87% 0 in 404.00 W/m2 unknown
10:24 60.8 °F 57.2 °F 30.1 in North 2.5 mph 3.7 mph 86% 0 in 445.00 W/m2 unknown
10:26 60.8 °F 57.2 °F 30.1 in NNE 1.2 mph 3.1 mph 86% 0 in 443.00 W/m2 unknown
10:34 60.8 °F 57.2 °F 30.1 in NE 1.2 mph 2.5 mph 86% 0 in 443.00 W/m2 unknown
10:39 62.6 °F 57.2 °F 30.1 in NNW 1.2 mph 1.2 mph 86% 0 in 439.00 W/m2 unknown
10:44 62.6 °F 57.2 °F 30.1 in NNE 1.2 mph 1.2 mph 85% 0 in 468.00 W/m2 unknown
10:48 62.6 °F 57.2 °F 30.1 in Calm   1.2 mph 85% 0 in 468.00 W/m2 unknown
10:53 64.4 °F 59 °F 30.1 in Calm   1.2 mph 83% 0 in 503.00 W/m2 unknown
10:57 64.4 °F 59 °F 30.1 in Calm   1.2 mph 83% 0 in 503.00 W/m2 unknown
11:04 64.4 °F 59 °F 30.1 in ESE 0.6 mph 2.5 mph 83% 0 in 485.00 W/m2 unknown
11:09 64.4 °F 59 °F 30.1 in ESE 2.5 mph 6.2 mph 82% 0 in 524.00 W/m2 unknown
11:12 64.4 °F 59 °F 30.1 in NNE 3.1 mph 6.2 mph 81% 0 in 533.00 W/m2 unknown
11:19 64.4 °F 59 °F 30.1 in NW 3.1 mph 6.2 mph 80% 0 in 533.00 W/m2 unknown
11:21 66.2 °F 60.8 °F 30.1 in NE 3.1 mph 5.6 mph 80% 0 in 547.00 W/m2 unknown
11:28 66.2 °F 59 °F 30.1 in ENE 1.9 mph 6.2 mph 80% 0 in 547.00 W/m2 unknown
11:34 66.2 °F 59 °F 30.1 in ENE 1.9 mph 3.1 mph 80% 0 in 547.00 W/m2 unknown
11:39 66.2 °F 60.8 °F 30.1 in ESE 1.9 mph 3.1 mph 79% 0 in 573.00 W/m2 unknown
11:44 66.2 °F 60.8 °F 30.1 in South 1.9 mph 3.7 mph 78% 0 in 580.00 W/m2 unknown
11:48 68 °F 59 °F 30.1 in NNW 1.2 mph 3.1 mph 77% 0 in 585.00 W/m2 unknown
11:53 68 °F 60.8 °F 30.1 in ENE 1.2 mph 3.7 mph 78% 0 in 587.00 W/m2 unknown
11:57 68 °F 60.8 °F 30.1 in ESE 1.2 mph 3.7 mph 76% 0 in 596.00 W/m2 unknown
12:03 68 °F 60.8 °F 30.1 in SE 1.2 mph 3.7 mph 76% 0 in 596.00 W/m2 unknown
12:09 68 °F 60.8 °F 30.1 in SE 1.2 mph 3.7 mph 76% 0 in 596.00 W/m2 unknown
12:11 69.8 °F 60.8 °F 30.1 in NNE 1.9 mph 3.7 mph 74% 0 in 608.00 W/m2 unknown
12:18 69.8 °F 60.8 °F 30.1 in NNE 1.2 mph 3.7 mph 74% 0 in 613.00 W/m2 unknown
12:22 69.8 °F 60.8 °F 30.1 in East 1.2 mph 3.7 mph 74% 0 in 613.00 W/m2 unknown
12:29 69.8 °F 60.8 °F 30.1 in ENE 1.2 mph 3.7 mph 74% 0 in 621.00 W/m2 unknown
12:33 69.8 °F 60.8 °F 30.1 in North 1.9 mph 3.7 mph 74% 0 in 624.00 W/m2 unknown
12:38 69.8 °F 60.8 °F 30.1 in WNW 1.9 mph 3.7 mph 73% 0 in 628.00 W/m2 unknown
12:44 69.8 °F 60.8 °F 30.1 in WSW 2.5 mph 3.7 mph 73% 0 in 629.00 W/m2 unknown
12:46 69.8 °F 60.8 °F 30.1 in SSW 2.5 mph 3.7 mph 72% 0 in 629.00 W/m2 unknown
12:53 71.6 °F 60.8 °F 30.1 in SW 2.5 mph 5 mph 72% 0 in 629.00 W/m2 unknown
12:57 71.6 °F 60.8 °F 30.1 in WNW 2.5 mph 5 mph 71% 0 in 640.00 W/m2 unknown
13:04 71.6 °F 60.8 °F 30.1 in WNW 2.5 mph 5 mph 70% 0 in 642.00 W/m2 unknown
13:07 71.6 °F 60.8 °F 30.1 in West 1.9 mph 5 mph 69% 0 in 643.00 W/m2 unknown
13:13 71.6 °F 60.8 °F 30.1 in SSW 3.1 mph 5 mph 69% 0 in 640.00 W/m2 unknown
13:18 71.6 °F 60.8 °F 30.1 in SSW 2.5 mph 6.2 mph 67% 0 in 640.00 W/m2 unknown
13:24 71.6 °F 60.8 °F 30.1 in SSW 3.1 mph 6.2 mph 68% 0 in 640.00 W/m2 unknown
13:27 71.6 °F 59 °F 30.1 in SW 3.1 mph 6.2 mph 66% 0 in 638.00 W/m2 unknown
13:31 73.4 °F 59 °F 30.1 in WNW 2.5 mph 5.6 mph 65% 0 in 642.00 W/m2 unknown
13:36 73.4 °F 60.8 °F 30.1 in WNW 2.5 mph 3.7 mph 65% 0 in 642.00 W/m2 unknown
13:41 73.4 °F 60.8 °F 30.1 in West 4.3 mph 6.2 mph 65% 0 in 636.00 W/m2 unknown
13:46 73.4 °F 59 °F 30.1 in West 4.3 mph 6.2 mph 63% 0 in 629.00 W/m2 unknown
13:53 73.4 °F 59 °F 30.1 in West 4.3 mph 6.2 mph 63% 0 in 629.00 W/m2 unknown
13:58 73.4 °F 60.8 °F 30.1 in NW 5 mph 5.6 mph 64% 0 in 631.00 W/m2 unknown
14:00 73.4 °F 59 °F 30.1 in WNW 5 mph 6.2 mph 63% 0 in 626.00 W/m2 unknown
14:06 73.4 °F 60.8 °F 30.1 in North 5 mph 6.2 mph 64% 0 in 626.00 W/m2 unknown
14:13 73.4 °F 60.8 °F 30.1 in NE 5 mph 6.2 mph 63% 0 in 613.00 W/m2 unknown
14:18 73.4 °F 60.8 °F 30.1 in WNW 5 mph 6.2 mph 63% 0 in 610.00 W/m2 unknown
14:22 73.4 °F 60.8 °F 30.1 in West 3.1 mph 3.7 mph 63% 0 in 610.00 W/m2 unknown
14:27 75.2 °F 60.8 °F 30.1 in WNW 3.1 mph 3.7 mph 65% 0 in 606.00 W/m2 unknown
14:33 75.2 °F 60.8 °F 30.1 in SW 2.5 mph 3.7 mph 62% 0 in 605.00 W/m2 unknown
14:38 75.2 °F 60.8 °F 30.1 in SSW 2.5 mph 3.7 mph 63% 0 in 594.00 W/m2 unknown
14:43 75.2 °F 60.8 °F 30.1 in South 2.5 mph 3.7 mph 63% 0 in 585.00 W/m2 unknown
14:48 73.4 °F 60.8 °F 30.1 in South 2.5 mph 3.7 mph 63% 0 in 585.00 W/m2 unknown
14:54 75.2 °F 60.8 °F 30.1 in SE 2.5 mph 3.7 mph 63% 0 in 577.00 W/m2 unknown
14:57 75.2 °F 60.8 °F 30.1 in SSE 2.5 mph 3.7 mph 63% 0 in 568.00 W/m2 unknown
15:04 75.2 °F 60.8 °F 30.1 in SSW 1.9 mph 3.7 mph 64% 0 in 559.00 W/m2 unknown
15:08 75.2 °F 60.8 °F 30.1 in SSW 1.9 mph 3.7 mph 63% 0 in 554.00 W/m2 unknown
15:14 75.2 °F 60.8 °F 30.1 in SSW 2.5 mph 3.7 mph 62% 0 in 545.00 W/m2 unknown
15:17 75.2 °F 60.8 °F 30.1 in SSE 2.5 mph 3.7 mph 62% 0 in 536.00 W/m2 unknown
15:22 75.2 °F 60.8 °F 30.1 in East 2.5 mph 3.7 mph 63% 0 in 529.00 W/m2 unknown
15:27 75.2 °F 60.8 °F 30.1 in West 2.5 mph 3.7 mph 63% 0 in 513.00 W/m2 unknown
15:33 75.2 °F 60.8 °F 30.1 in NW 2.5 mph 5 mph 62% 0 in 506.00 W/m2 unknown
15:39 75.2 °F 60.8 °F 30.1 in SW 3.1 mph 5 mph 62% 0 in 497.00 W/m2 unknown
15:41 75.2 °F 60.8 °F 30.1 in SW 3.1 mph 5 mph 61% 0 in 485.00 W/m2 unknown
15:46 75.2 °F 60.8 °F 30.1 in SW 3.1 mph 5 mph 61% 0 in 485.00 W/m2 unknown
15:53 75.2 °F 60.8 °F 30.1 in SSW 3.1 mph 5 mph 61% 0 in 485.00 W/m2 unknown
15:58 75.2 °F 60.8 °F 30 in WSW 2.5 mph 5 mph 62% 0 in 462.00 W/m2 unknown
16:04 75.2 °F 60.8 °F 30 in West 1.9 mph 5 mph 61% 0 in 450.00 W/m2 unknown
16:08 75.2 °F 60.8 °F 30 in SW 1.9 mph 3.7 mph 61% 0 in 450.00 W/m2 unknown
16:14 75.2 °F 60.8 °F 30 in SSW 4.3 mph 6.2 mph 61% 0 in 425.00 W/m2 unknown
16:18 75.2 °F 62.6 °F 30 in SSW 5 mph 6.8 mph 63% 0 in 411.00 W/m2 unknown
16:23 75.2 °F 62.6 °F 30 in SSW 5 mph 6.8 mph 62% 0 in 406.00 W/m2 unknown
16:28 75.2 °F 62.6 °F 30 in SSE 5 mph 6.8 mph 63% 0 in 392.00 W/m2 unknown
16:34 75.2 °F 62.6 °F 30 in West 4.3 mph 6.8 mph 63% 0 in 378.00 W/m2 unknown
16:39 75.2 °F 62.6 °F 30 in SW 3.7 mph 6.8 mph 63% 0 in 371.00 W/m2 unknown
16:42 75.2 °F 62.6 °F 30 in NW 2.5 mph 3.7 mph 62% 0 in 350.00 W/m2 unknown
16:49 77 °F 62.6 °F 30 in WNW 3.1 mph 3.7 mph 62% 0 in 345.00 W/m2 unknown
16:52 77 °F 62.6 °F 30 in West 3.1 mph 5 mph 61% 0 in 322.00 W/m2 unknown
16:58 75.2 °F 62.6 °F 30 in WSW 3.7 mph 5 mph 62% 0 in 313.00 W/m2 unknown
17:02 77 °F 62.6 °F 30 in WNW 3.7 mph 5 mph 62% 0 in 287.00 W/m2 unknown
17:09 75.2 °F 62.6 °F 30 in SW 3.7 mph 5 mph 63% 0 in 276.00 W/m2 unknown
17:13 75.2 °F 62.6 °F 30 in South 3.7 mph 6.2 mph 63% 0 in 255.00 W/m2 unknown
17:18 75.2 °F 60.8 °F 30 in SSW 3.7 mph 5.6 mph 62% 0 in 253.00 W/m2 unknown
17:20 75.2 °F 60.8 °F 30 in SSW 3.7 mph 5.6 mph 63% 0 in 253.00 W/m2 unknown
17:54 75.2 °F 62.6 °F 30 in SW 4.3 mph 6.8 mph 64% 0 in 142.00 W/m2 unknown
17:59 75.2 °F 62.6 °F 30 in SSW 4.3 mph 4.3 mph 65% 0 in 127.00 W/m2 unknown
18:00 75.2 °F 62.6 °F 30 in SW 1.9 mph 6.2 mph 65% 0 in 221.00 W/m2 unknown
18:09 75.2 °F 62.6 °F 30 in North 2.5 mph 3.7 mph 65% 0 in 0.00 W/m2 unknown
18:13 75.2 °F 62.6 °F 30 in North 2.5 mph 3.7 mph 65% 0 in 0.00 W/m2 unknown
18:18 75.2 °F 62.6 °F 30 in North 2.5 mph 3.7 mph 65% 0 in 0.00 W/m2 unknown
18:34 71.6 °F 62.6 °F 30 in SSW 1.2 mph 2.5 mph 75% 0 in 16.00 W/m2 unknown
18:39 73.4 °F 62.6 °F 30 in SW 1.2 mph 2.5 mph 75% 0 in 49.00 W/m2 unknown
18:44 69.8 °F 62.6 °F 30 in Calm     77% 0 in 12.00 W/m2 unknown
18:49 69.8 °F 62.6 °F 30 in Calm     77% 0 in 11.00 W/m2 unknown
18:54 69.8 °F 62.6 °F 30 in Calm     78% 0 in 7.00 W/m2 unknown
18:59 69.8 °F 62.6 °F 30 in Calm     79% 0 in 0.00 W/m2 unknown
19:04 68 °F 62.6 °F 30 in Calm     79% 0 in 0.00 W/m2 unknown
19:09 68 °F 62.6 °F 30 in Calm     81% 0 in 0.00 W/m2 unknown
19:14 68 °F 62.6 °F 30 in Calm     81% 0 in 0.00 W/m2 unknown
19:19 68 °F 60.8 °F 30 in Calm     82% 0 in 0.00 W/m2 unknown
19:24 66.2 °F 60.8 °F 30 in Calm     82% 0 in 0.00 W/m2 unknown
19:29 66.2 °F 60.8 °F 30 in Calm     83% 0 in 0.00 W/m2 unknown
19:34 66.2 °F 60.8 °F 30 in Calm     83% 0 in 0.00 W/m2 unknown
19:39 66.2 °F 60.8 °F 30 in SE 3.1 mph 3.7 mph 83% 0 in 0.00 W/m2 unknown
19:44 66.2 °F 60.8 °F 30 in SE 1.9 mph 3.7 mph 84% 0 in 0.00 W/m2 unknown
19:49 66.2 °F 60.8 °F 30 in SE 1.2 mph 3.1 mph 84% 0 in 0.00 W/m2 unknown
19:54 66.2 °F 60.8 °F 30 in Calm   1.9 mph 85% 0 in 0.00 W/m2 unknown
19:59 64.4 °F 60.8 °F 30 in Calm     85% 0 in 0.00 W/m2 unknown
20:04 64.4 °F 60.8 °F 30 in Calm     85% 0 in 0.00 W/m2 unknown
20:09 64.4 °F 60.8 °F 30 in Calm     86% 0 in 0.00 W/m2 unknown
20:14 64.4 °F 60.8 °F 30 in Calm     86% 0 in 0.00 W/m2 unknown
20:19 64.4 °F 60.8 °F 30 in Calm     87% 0 in 0.00 W/m2 unknown
20:24 64.4 °F 60.8 °F 30 in Calm     87% 0 in 0.00 W/m2 unknown
20:29 64.4 °F 60.8 °F 30 in ENE 1.2 mph 2.5 mph 87% 0 in 0.00 W/m2 unknown
20:34 64.4 °F 60.8 °F 30 in NE 1.2 mph 2.5 mph 87% 0 in 0.00 W/m2 unknown
20:39 64.4 °F 60.8 °F 30 in Calm   1.9 mph 87% 0 in 0.00 W/m2 unknown
20:44 64.4 °F 60.8 °F 30 in Calm     87% 0 in 0.00 W/m2 unknown
20:49 64.4 °F 60.8 °F 30 in Calm     87% 0 in 0.00 W/m2 unknown
20:54 64.4 °F 60.8 °F 30 in ENE 1.2 mph 2.5 mph 88% 0 in 0.00 W/m2 unknown
20:59 64.4 °F 60.8 °F 30 in SE 1.9 mph 3.1 mph 88% 0 in 0.00 W/m2 unknown
21:04 62.6 °F 59 °F 30 in SSE 1.9 mph 3.7 mph 88% 0 in 0.00 W/m2 unknown
21:09 62.6 °F 59 °F 30 in SSE 1.9 mph 3.1 mph 89% 0 in 0.00 W/m2 unknown
21:14 62.6 °F 59 °F 30 in SSE 1.9 mph 2.5 mph 89% 0 in 0.00 W/m2 unknown
21:19 62.6 °F 59 °F 30 in SSE 1.9 mph 2.5 mph 89% 0 in 0.00 W/m2 unknown
21:24 62.6 °F 59 °F 30 in SSE 1.2 mph 2.5 mph 89% 0 in 0.00 W/m2 unknown
21:29 62.6 °F 59 °F 30 in Calm   1.9 mph 89% 0 in 0.00 W/m2 unknown
21:34 62.6 °F 59 °F 30 in Calm     89% 0 in 0.00 W/m2 unknown
21:39 62.6 °F 59 °F 30 in Calm     89% 0 in 0.00 W/m2 unknown
21:44 62.6 °F 59 °F 30 in Calm     89% 0 in 0.00 W/m2 unknown
21:49 62.6 °F 59 °F 30 in Calm     89% 0 in 0.00 W/m2 unknown
21:54 62.6 °F 59 °F 30 in Calm     89% 0 in 0.00 W/m2 unknown
21:59 62.6 °F 59 °F 30 in Calm     89% 0 in 0.00 W/m2 unknown
22:04 62.6 °F 59 °F 30 in SW 1.2 mph 2.5 mph 89% 0 in 0.00 W/m2 unknown
22:09 62.6 °F 59 °F 30 in WSW 1.2 mph 2.5 mph 89% 0 in 0.00 W/m2 unknown
22:14 62.6 °F 59 °F 30 in Calm   1.9 mph 89% 0 in 0.00 W/m2 unknown
22:19 62.6 °F 59 °F 30 in Calm     89% 0 in 0.00 W/m2 unknown
22:24 62.6 °F 59 °F 30 in Calm   1.2 mph 90% 0 in 0.00 W/m2 unknown
22:29 62.6 °F 59 °F 30 in WSW 1.9 mph 2.5 mph 89% 0 in 0.00 W/m2 unknown
22:34 62.6 °F 59 °F 30 in WSW 1.9 mph 2.5 mph 89% 0 in 0.00 W/m2 unknown
22:39 62.6 °F 59 °F 30 in WSW 0.6 mph 1.2 mph 89% 0 in 0.00 W/m2 unknown
22:44 62.6 °F 59 °F 30 in Calm   1.2 mph 89% 0 in 0.00 W/m2 unknown
22:49 62.6 °F 59 °F 30 in Calm     89% 0 in 0.00 W/m2 unknown
22:54 62.6 °F 59 °F 30 in Calm     89% 0 in 0.00 W/m2 unknown
22:59 62.6 °F 59 °F 30 in WSW 0.6 mph 1.2 mph 89% 0 in 0.00 W/m2 unknown
23:04 62.6 °F 59 °F 30 in Calm   1.2 mph 89% 0 in 0.00 W/m2 unknown
23:09 62.6 °F 59 °F 30 in Calm     89% 0 in 0.00 W/m2 unknown
23:14 62.6 °F 59 °F 30 in Calm     89% 0 in 0.00 W/m2 unknown
23:19 62.6 °F 59 °F 30 in SSE 5.6 mph 8.1 mph 89% 0 in 0.00 W/m2 unknown
23:24 62.6 °F 59 °F 30 in ENE 6.2 mph 8.1 mph 90% 0 in 0.00 W/m2 unknown
23:29 62.6 °F 59 °F 30 in ENE 4.3 mph 8.1 mph 90% 0 in 0.00 W/m2 unknown
23:34 62.6 °F 59 °F 30 in ENE 3.7 mph 6.8 mph 90% 0 in 0.00 W/m2 unknown
23:39 62.6 °F 59 °F 30 in ENE 2.5 mph 6.8 mph 89% 0 in 0.00 W/m2 unknown
23:44 62.6 °F 59 °F 30 in ENE 6.2 mph 6.8 mph 90% 0 in 0.00 W/m2 unknown
23:49 62.6 °F 59 °F 30 in ENE 6.2 mph 6.8 mph 90% 0 in 0.00 W/m2 unknown
23:54 62.6 °F 59 °F 30 in ENE 1.9 mph 6.8 mph 89% 0 in 0.00 W/m2 unknown
23:59 62.6 °F 59 °F 30 in NE 3.1 mph 5 mph 88% 0 in 0.00 W/m2 unknown
Stazione Meteorologica MeteoMincio Rivalta s/M (MN)
Con i complimenti di Weather Underground - 4 mb



GLOSSARIO METEOROLOGICO
Pioggia
Precipitazione di gocce d'acqua di vario diametro, tra 0,5 e 7 mm. Le gocce di pioggia traggono origine dalle gocce di nube: quando quest'ultime diventano abbastanza grosse da poter cadere prendono il nome di gocce di pioggia. Una goccia di pioggia contiene circa centomila goccioline di nube e si forma per coalescenza fra gocce di nube piccole e più grosse. La pioggia minuta e persistente cade dagli altostrati che partono da quote molto basse. La pioggia intensa è prodotta dai nembostrati. Tanto più intensa è la pioggia, tanto è maggiore è lo sviluppo verticale della nube alla cui sommità sono presenti cristalli di ghiaccio. L'unità di misura adottata è il millimetro, che equivale ad un litro d'acqua per metro quadrato di superficie.
Share

Non seguire questo link o sarai bannato dal sito!